Temp
70 73 82 83 83 83 83 83 82 82 82 82 82 82 82 83 82 82 83 83 83 83 83 83 83 83 83 83 83 83 83 83 83 83 83 83 83 83 82 83 82 81 82
73 75 82 83 83 83 82 82 82 82 82 82 82 83 83 83 83 83 82 83 83 83 83 83 83 83 83 83 83 83 83 83 83 83 84 84 83 83 83 83 82 81 82
74 77 81 82 83 82 82 82 82 83 83 83 83 83 83 83 83 83 83 83 83 83 83 83 83 83 83 83 83 83 83 83 83 82 82 77 79 83 83 83 82 82 82
75 77 79 81 82 82 82 82 83 83 83 83 82 83 83 83 83 83 84 83 83 83 84 83 83 84 83 83 82 82 82 83 83 81 75 77 82 83 83 82 82 82 82
75 77 79 82 82 83 83 83 83 83 83 83 83 82 83 83 84 83 83 83 83 83 83 82 82 84 84 83 83 82 81 82 82 78 74 74 77 82 82 82 83 82 81
76 79 82 82 83 83 83 83 83 83 83 83 82 83 84 84 84 84 84 84 84 84 82 84 83 84 83 83 83 83 83 82 81 75 74 77 76 83 83 83 82 82 81
74 78 80 82 83 83 83 83 83 83 83 82 83 84 84 84 84 84 84 84 84 84 84 83 83 83 83 83 83 84 84 81 74 73 74 74 77 82 83 82 82 82 82
75 77 80 82 83 83 83 83 83 83 83 83 83 83 83 84 84 84 84 84 84 84 84 83 82 82 83 83 83 83 84 82 78 74 75 75 79 82 82 82 82 81 81
77 76 77 79 81 83 83 83 83 83 83 83 83 83 83 84 84 84 84 84 84 84 84 83 83 83 83 83 82 83 83 81 74 74 77 75 80 82 82 82 82 81 81
75 76 74 75 76 76 78 83 83 83 83 83 83 83 84 84 84 84 82 84 85 85 84 83 83 83 83 83 83 82 82 81 74 75 74 75 81 83 82 82 82 81 81
75 73 73 73 74 74 76 80 82 83 83 83 82 83 79 74 76 79 82 84 85 85 85 84 84 83 83 83 84 81 82 72 73 74 74 79 81 83 83 82 81 81 81
74 73 72 73 73 73 80 76 75 78 77 76 75 73 72 73 74 78 81 84 83 83 83 84 84 84 81 76 76 79 73 73 73 73 74 80 81 83 83 82 81 81 81
73 74 72 72 72 73 75 73 73 74 74 73 72 71 72 74 74 74 73 72 72 78 74 76 75 76 76 76 78 75 73 73 73 73 77 80 81 82 82 82 81 81 81
72 74 73 73 72 72 72 72 72 72 72 72 71 71 71 71 72 71 71 71 71 70 72 72 73 74 74 76 76 76 76 72 73 73 75 80 81 82 82 82 81 81 81
73 74 74 74 72 73 71 71 71 72 73 73 72 72 70 69 70 71 71 71 71 72 71 71 73 74 74 75 74 75 78 75 74 73 73 81 81 81 82 82 81 81 81
75 75 75 74 74 72 71 70 71 72 73 73 73 72 73 70 70 71 72 72 72 72 71 72 72 73 75 76 73 75 75 74 73 73 73 75 81 81 81 81 81 81 81
76 77 75 75 75 72 72 72 72 73 75 73 74 74 74 73 72 73 72 72 72 72 73 73 73 72 72 74 73 74 75 74 73 73 73 73 76 81 81 82 81 81 81
78 76 76 80 76 73 72 72 73 74 74 76 75 74 75 74 73 73 72 72 72 72 72 71 71 71 71 71 71 72 72 73 73 73 73 73 73 76 79 80 80 81 81
79 77 76 78 76 74 73 73 74 75 73 74 74 74 74 75 75 73 72 72 72 71 72 72 71 72 72 73 74 71 70 71 72 76 73 73 72 73 73 78 79 79 81
79 78 78 78 76 75 74 72 72 73 73 73 74 74 75 75 75 72 72 72 70 71 72 72 71 70 70 73 80 73 70 71 70 71 73 75 72 73 72 73 73 74 79
79 78 78 77 77 75 72 72 70 71 71 72 73 76 75 75 75 72 72 71 71 72 72 72 70 70 68 69 69 68 70 71 71 70 71 71 73 73 71 72 71 71 73
78 78 77 78 77 76 78 78 72 71 71 73 74 75 76 76 75 74 72 72 72 72 72 72 70 69 68 69 68 65 66 68 69 70 69 72 71 72 73 73 71 72 71
77 77 77 78 79 78 78 72 70 71 71 71 71 73 74 76 76 75 73 73 72 72 71 71 71 70 68 68 73 67 62 62 63 67 68 70 70 69 70 72 72 72 71
79 79 79 79 79 79 77 76 73 73 73 70 71 72 73 76 76 76 75 74 73 72 72 72 72 71 69 68 68 70 66 66 64 64 67 68 69 70 69 69 71 72 71
82 79 79 78 78 79 76 78 76 72 73 69 70 72 72 73 75 77 75 74 73 72 73 72 71 71 69 68 68 67 66 66 64 63 62 66 68 68 68 69 70 70 71
83 80 79 77 77 78 77 77 76 75 69 69 69 70 70 72 75 75 76 74 73 73 73 72 73 71 70 68 68 67 68 67 65 64 62 62 64 68 69 69 69 69 69
MSLP
1014.76 1014.39 1014.24 1014.48 1014.66 1014.90 1015.15 1015.27 1015.42 1015.53 1015.62 1015.76 1015.80 1015.91 1016.01 1016.08 1016.09 1016.14 1016.27 1016.48 1016.67 1016.82 1016.94 1017.02 1017.04 1017.05 1017.08 1017.08 1017.08 1017.10 1017.25 1017.32 1017.38 1017.40 1017.42 1017.44 1017.51 1017.46 1017.67 1017.74 1017.92 1018.05 1018.05
1014.32 1014.48 1014.45 1014.72 1014.88 1015.14 1015.30 1015.50 1015.63 1015.85 1015.86 1015.93 1016.08 1016.14 1016.20 1016.30 1016.33 1016.42 1016.57 1016.69 1016.79 1016.98 1017.17 1017.28 1017.32 1017.32 1017.41 1017.36 1017.34 1017.40 1017.47 1017.55 1017.60 1017.58 1017.54 1017.56 1017.75 1017.84 1017.90 1018.06 1018.30 1018.39 1018.50
1014.45 1014.50 1014.72 1014.90 1015.10 1015.34 1015.42 1015.57 1015.64 1015.96 1015.98 1016.07 1016.16 1016.26 1016.45 1016.52 1016.56 1016.64 1016.74 1016.81 1016.96 1017.00 1017.28 1017.38 1017.40 1017.43 1017.46 1017.47 1017.60 1017.63 1017.68 1017.68 1017.84 1017.90 1017.95 1018.00 1018.05 1018.21 1018.16 1018.29 1018.45 1018.71 1018.88
1014.33 1014.67 1014.89 1015.09 1015.32 1015.51 1015.63 1015.78 1015.87 1016.10 1016.20 1016.28 1016.39 1016.54 1016.64 1016.76 1016.77 1016.76 1016.89 1017.03 1017.16 1017.24 1017.35 1017.63 1017.63 1017.67 1017.73 1017.71 1017.89 1017.96 1017.94 1017.92 1018.08 1018.25 1018.34 1018.24 1018.25 1018.33 1018.39 1018.61 1018.80 1018.98 1019.19
1014.54 1014.85 1015.07 1015.32 1015.52 1015.63 1015.81 1016.00 1016.13 1016.32 1016.47 1016.52 1016.52 1016.76 1016.82 1016.88 1016.95 1017.04 1017.17 1017.22 1017.37 1017.49 1017.51 1017.59 1017.88 1017.90 1017.95 1017.93 1017.94 1017.97 1018.06 1018.20 1018.32 1018.54 1018.70 1018.66 1018.58 1018.65 1018.75 1018.91 1019.02 1019.26 1019.46
1014.74 1014.92 1015.16 1015.44 1015.65 1015.76 1016.00 1016.19 1016.42 1016.62 1016.77 1016.74 1016.70 1016.81 1016.98 1017.14 1017.26 1017.33 1017.36 1017.46 1017.54 1017.61 1017.64 1017.74 1017.88 1018.08 1018.24 1018.12 1018.15 1018.16 1018.22 1018.34 1018.56 1018.90 1018.96 1018.88 1018.92 1018.90 1019.04 1019.18 1019.31 1019.46 1019.66
1014.94 1015.07 1015.34 1015.49 1015.72 1015.95 1016.20 1016.45 1016.66 1016.83 1016.93 1017.04 1017.06 1017.12 1017.28 1017.33 1017.36 1017.44 1017.54 1017.70 1017.80 1017.86 1017.94 1018.07 1018.13 1018.23 1018.48 1018.37 1018.30 1018.30 1018.36 1018.68 1018.98 1019.22 1019.33 1019.32 1019.21 1019.26 1019.34 1019.45 1019.54 1019.72 1019.81
1015.05 1015.21 1015.46 1015.71 1015.92 1016.17 1016.37 1016.61 1016.82 1017.04 1017.12 1017.23 1017.31 1017.38 1017.54 1017.60 1017.65 1017.66 1017.72 1017.82 1017.94 1018.06 1018.23 1018.32 1018.42 1018.40 1018.55 1018.58 1018.53 1018.51 1018.55 1018.88 1019.23 1019.39 1019.54 1019.58 1019.53 1019.63 1019.76 1019.78 1019.84 1019.98 1020.07
1015.12 1015.33 1015.67 1015.91 1016.12 1016.30 1016.56 1016.73 1016.97 1017.19 1017.35 1017.48 1017.55 1017.71 1017.79 1017.80 1017.80 1017.87 1017.92 1017.95 1018.00 1018.18 1018.34 1018.46 1018.54 1018.58 1018.73 1018.78 1018.81 1018.77 1018.91 1019.19 1019.48 1019.62 1019.71 1019.83 1019.79 1019.82 1019.99 1020.04 1020.12 1020.30 1020.60
1015.48 1015.56 1015.92 1016.10 1016.29 1016.44 1016.70 1016.81 1017.04 1017.31 1017.47 1017.58 1017.70 1017.88 1017.97 1017.92 1017.90 1018.03 1018.18 1018.13 1018.18 1018.32 1018.48 1018.74 1018.78 1018.92 1018.96 1018.99 1018.94 1018.97 1019.14 1019.46 1019.70 1019.82 1020.03 1020.05 1019.94 1019.99 1020.18 1020.40 1020.56 1020.74 1020.94
1015.86 1016.08 1016.13 1016.31 1016.40 1016.64 1016.84 1016.94 1017.17 1017.42 1017.53 1017.61 1017.74 1017.92 1018.08 1018.14 1018.20 1018.21 1018.36 1018.35 1018.34 1018.44 1018.63 1018.72 1018.87 1018.85 1018.98 1019.14 1019.08 1019.07 1019.34 1019.88 1020.03 1020.18 1020.27 1020.25 1020.28 1020.27 1020.42 1020.63 1020.80 1020.99 1021.26
1015.87 1016.25 1016.42 1016.42 1016.49 1016.86 1016.86 1017.15 1017.44 1017.61 1017.69 1017.84 1017.98 1018.08 1018.38 1018.44 1018.53 1018.54 1018.42 1018.44 1018.63 1018.65 1018.75 1018.78 1018.85 1018.94 1019.14 1019.27 1019.39 1019.51 1019.92 1020.16 1020.40 1020.51 1020.53 1020.52 1020.54 1020.52 1020.62 1020.81 1021.00 1021.20 1021.40
1015.66 1016.14 1016.40 1016.40 1016.61 1016.90 1016.92 1017.34 1017.62 1017.74 1017.96 1018.20 1018.30 1018.42 1018.51 1018.49 1018.53 1018.69 1018.74 1018.80 1018.88 1018.97 1019.07 1019.02 1019.20 1019.29 1019.16 1019.20 1019.57 1019.68 1019.90 1020.29 1020.56 1020.72 1020.75 1020.77 1020.85 1020.93 1021.03 1021.20 1021.32 1021.48 1021.68
1015.63 1015.92 1016.22 1016.31 1016.62 1016.89 1017.08 1017.43 1017.55 1017.90 1018.20 1018.34 1018.42 1018.51 1018.62 1018.78 1018.73 1019.00 1019.00 1019.05 1019.03 1019.20 1019.39 1019.33 1019.33 1019.43 1019.35 1019.23 1019.50 1019.66 1019.96 1020.41 1020.67 1020.77 1020.86 1020.98 1021.04 1021.20 1021.28 1021.39 1021.52 1021.72 1022.01
1015.39 1015.72 1016.02 1016.17 1016.58 1016.77 1017.12 1017.44 1017.62 1017.86 1018.07 1018.26 1018.35 1018.44 1018.65 1018.85 1018.93 1019.07 1019.11 1019.08 1019.07 1019.35 1019.47 1019.45 1019.35 1019.45 1019.20 1019.19 1019.20 1019.55 1019.90 1020.35 1020.69 1020.91 1021.07 1020.99 1021.24 1021.34 1021.51 1021.72 1021.95 1022.02 1022.16
1014.95 1015.33 1015.74 1016.05 1016.12 1016.67 1017.03 1017.35 1017.57 1017.73 1017.93 1018.18 1018.29 1018.31 1018.64 1018.96 1019.01 1018.95 1018.94 1019.06 1019.17 1019.40 1019.55 1019.52 1019.74 1019.52 1019.19 1019.18 1019.46 1019.56 1019.89 1020.28 1020.68 1020.96 1021.09 1021.12 1021.32 1021.39 1021.69 1021.95 1022.12 1022.17 1022.28
1014.42 1014.88 1015.38 1015.74 1015.86 1016.55 1016.92 1017.16 1017.46 1017.52 1017.80 1017.99 1018.03 1018.20 1018.40 1018.66 1018.82 1018.74 1018.76 1019.00 1019.20 1019.38 1019.35 1019.44 1019.67 1020.02 1019.70 1019.56 1019.72 1019.79 1020.08 1020.38 1020.77 1021.11 1021.22 1021.36 1021.50 1021.51 1021.77 1021.98 1022.14 1022.24 1022.44
1014.00 1014.56 1015.01 1015.40 1015.83 1016.26 1016.61 1016.88 1017.14 1017.32 1017.49 1017.65 1017.79 1018.03 1018.28 1018.54 1018.69 1018.68 1018.73 1018.94 1019.13 1019.34 1019.42 1019.79 1019.85 1020.28 1020.32 1020.02 1020.00 1020.15 1020.45 1020.62 1021.00 1021.21 1021.37 1021.62 1021.69 1021.69 1021.77 1022.04 1022.19 1022.12 1022.14
1013.42 1014.02 1014.69 1015.10 1015.54 1015.99 1016.28 1016.55 1016.80 1016.88 1017.24 1017.28 1017.53 1017.87 1018.19 1018.40 1018.60 1018.69 1018.72 1018.91 1019.22 1019.43 1019.63 1019.65 1019.98 1020.01 1020.26 1020.21 1020.18 1020.48 1020.80 1021.02 1021.18 1021.17 1021.48 1021.64 1021.85 1021.81 1021.92 1022.01 1022.02 1022.12 1022.16
1013.01 1013.56 1014.13 1014.74 1015.20 1015.73 1016.20 1016.62 1016.84 1016.91 1017.11 1017.05 1017.30 1017.66 1018.07 1018.38 1018.56 1018.62 1018.78 1018.92 1019.17 1019.28 1019.63 1019.82 1020.03 1020.20 1020.26 1020.36 1020.38 1020.95 1021.16 1021.14 1021.36 1021.48 1021.54 1021.60 1021.76 1021.88 1022.00 1022.07 1022.21 1022.18 1022.20
1012.60 1013.23 1013.63 1014.22 1014.78 1015.54 1016.17 1016.70 1017.10 1017.21 1017.23 1017.31 1017.27 1017.39 1017.90 1018.32 1018.50 1018.64 1018.76 1018.84 1019.04 1019.36 1019.65 1019.79 1020.01 1020.28 1020.58 1020.68 1021.02 1021.51 1021.46 1021.51 1021.57 1021.75 1021.76 1021.73 1021.69 1021.78 1022.06 1022.10 1022.25 1022.34 1022.24
1011.83 1012.54 1013.18 1013.54 1014.20 1014.99 1015.57 1015.98 1016.27 1016.50 1016.91 1017.04 1017.13 1017.23 1017.58 1017.96 1018.31 1018.59 1018.70 1018.92 1018.96 1019.30 1019.62 1019.85 1020.10 1020.48 1020.74 1020.74 1021.23 1021.89 1022.10 1021.95 1021.80 1021.78 1021.80 1021.79 1021.89 1021.89 1021.93 1022.01 1022.20 1022.26 1022.28
1011.02 1011.70 1012.39 1012.88 1013.49 1014.21 1014.89 1015.65 1016.21 1016.41 1016.65 1017.07 1017.26 1017.35 1017.45 1017.66 1017.95 1018.31 1018.49 1018.64 1018.85 1019.02 1019.46 1019.81 1020.16 1020.43 1020.85 1021.05 1020.92 1021.54 1022.46 1022.46 1022.26 1021.94 1021.88 1021.93 1022.02 1022.12 1022.13 1022.09 1022.08 1022.07 1022.15
1009.98 1010.99 1011.77 1012.34 1012.88 1013.67 1014.43 1015.08 1015.53 1015.89 1016.41 1016.65 1016.92 1017.18 1017.32 1017.45 1017.72 1018.05 1018.27 1018.46 1018.66 1018.89 1019.26 1019.59 1019.99 1020.25 1020.58 1021.16 1021.30 1021.34 1021.46 1021.76 1022.46 1022.80 1022.18 1021.94 1021.98 1022.11 1022.18 1022.13 1022.10 1022.21 1022.22
1009.23 1010.10 1010.94 1011.84 1012.45 1013.08 1013.84 1014.35 1014.98 1015.53 1015.82 1016.39 1016.76 1017.10 1017.38 1017.48 1017.54 1017.67 1018.04 1018.36 1018.63 1018.88 1019.09 1019.45 1019.81 1020.21 1020.46 1020.93 1021.20 1021.46 1021.69 1021.79 1021.99 1022.56 1022.71 1022.34 1022.10 1021.90 1021.92 1022.02 1021.99 1022.09 1022.14
1008.42 1009.45 1010.29 1011.10 1011.82 1012.65 1013.17 1013.82 1014.40 1015.00 1015.50 1016.16 1016.62 1017.02 1017.34 1017.45 1017.60 1017.53 1017.78 1018.25 1018.46 1018.65 1019.02 1019.23 1019.58 1020.06 1020.42 1020.64 1020.86 1021.04 1021.29 1021.67 1021.99 1022.23 1022.57 1022.50 1022.40 1021.96 1021.69 1021.67 1021.79 1021.76 1021.86
Wind_Speed
3 6 16 17 18 18 18 19 18 17 17 17 16 17 16 15 15 15 15 15 14 13 13 12 12 12 11 11 11 12 12 11 12 12 12 12 12 14 14 15 14 11 15
6 5 16 15 18 17 17 17 17 17 16 16 16 16 15 15 14 14 15 15 14 14 13 11 12 11 12 11 11 12 13 12 12 12 12 11 12 13 14 15 14 12 15
8 7 12 15 17 17 16 16 16 16 16 15 15 15 14 14 14 14 14 12 12 13 11 10 11 10 11 11 11 11 12 14 12 13 13 5 6 12 15 15 15 15 15
10 8 10 15 16 17 16 15 15 15 15 14 13 14 13 13 14 13 13 12 11 10 10 9 10 10 10 9 10 10 11 12 13 11 4 5 8 14 15 15 14 14 14
9 9 11 15 15 16 16 15 14 15 14 13 12 14 14 12 14 13 13 12 11 9 8 8 10 10 9 8 9 8 11 13 11 7 5 5 4 12 14 14 13 13 13
10 11 15 17 16 15 16 15 13 15 13 11 13 14 13 13 13 13 12 11 10 9 8 7 8 9 9 8 7 6 6 5 9 5 4 6 5 13 13 13 13 14 12
9 10 12 16 15 16 15 14 13 14 12 11 11 13 12 12 13 13 12 11 10 9 8 7 8 9 10 8 7 6 9 11 6 5 4 4 5 12 13 13 12 13 12
11 9 11 16 15 15 14 13 13 13 12 10 10 10 10 11 11 11 12 11 10 9 9 8 8 8 11 10 8 9 13 13 7 5 4 4 8 11 12 12 12 12 12
9 8 8 7 12 15 14 13 12 12 11 10 9 9 9 9 9 9 10 10 9 10 9 8 9 9 10 8 9 6 11 11 5 4 5 3 10 12 12 11 12 12 11
7 8 5 6 6 6 6 13 12 12 11 10 9 8 8 8 8 8 6 7 8 8 8 8 8 9 9 8 9 9 13 12 5 4 3 2 10 12 12 11 10 10 10
8 5 5 6 6 6 5 7 10 12 11 10 9 8 5 2 2 4 3 4 6 6 6 7 5 7 8 8 8 9 11 3 4 3 2 8 9 11 11 10 10 10 9
15 8 5 6 6 5 4 3 4 4 3 4 4 4 2 1 0 1 2 2 4 6 6 6 5 4 6 3 3 7 3 4 3 3 2 9 9 11 11 10 10 10 9
13 9 7 7 5 6 4 3 2 2 2 1 2 2 3 1 2 2 1 2 2 4 2 3 4 2 1 1 3 3 5 4 3 2 4 7 9 9 10 9 8 9 9
13 11 9 7 6 6 3 3 4 3 2 2 3 3 2 2 2 2 1 0 2 2 2 3 2 1 2 3 3 5 5 4 3 2 4 7 8 10 10 10 9 8 8
13 12 12 9 8 6 5 3 3 4 3 3 4 4 3 3 3 2 2 1 1 3 3 4 3 1 1 3 5 5 5 6 5 3 2 12 9 10 9 9 8 7 7
14 13 12 11 10 6 5 6 4 4 4 4 4 4 5 3 4 4 3 2 0 1 1 1 3 1 2 3 4 5 5 5 5 5 3 3 9 9 10 9 8 8 7
13 13 13 12 10 7 7 6 4 4 4 4 5 5 5 3 4 5 3 2 1 1 2 2 2 2 2 3 3 5 4 5 5 4 3 2 3 9 9 9 8 8 7
14 14 13 12 11 8 7 6 4 5 4 5 4 4 6 5 6 4 3 2 2 0 1 2 1 4 3 2 2 3 3 3 5 5 3 2 2 2 6 8 8 8 9
15 14 13 12 10 9 7 5 5 6 4 5 4 4 6 5 6 5 4 2 3 2 1 1 0 1 2 2 3 3 1 2 3 3 4 4 4 3 2 5 9 9 9
13 14 14 11 10 9 5 3 2 3 2 3 4 4 6 4 6 4 3 4 2 0 2 1 2 1 2 2 4 4 1 1 3 3 4 3 4 3 2 4 2 4 9
14 14 16 15 12 8 4 5 3 4 3 1 4 7 7 5 5 5 3 3 2 2 2 2 2 3 2 2 4 3 2 3 2 1 2 3 4 3 4 3 2 2 2
17 17 16 17 14 11 9 7 3 3 3 3 3 5 7 7 6 5 5 5 4 2 2 3 2 2 2 1 4 3 2 4 2 1 2 2 3 2 3 4 3 4 3
17 18 18 18 17 15 14 3 2 3 2 3 1 2 4 7 7 6 6 5 4 3 3 3 3 3 3 2 2 5 2 3 1 2 1 2 2 2 3 3 4 4 3
18 17 17 17 17 15 12 10 9 6 7 3 4 3 3 6 6 6 6 5 5 3 4 4 4 2 4 3 1 2 3 4 3 2 2 2 2 4 5 3 4 5 4
18 18 18 17 17 17 14 14 10 6 5 3 3 6 4 5 6 7 6 6 5 4 4 5 5 4 2 3 2 2 2 3 3 3 3 3 2 3 3 4 4 4 5
20 17 17 18 17 17 15 15 14 13 7 5 4 5 4 4 6 6 7 6 6 5 5 5 5 5 5 3 3 3 3 4 3 3 1 3 4 3 3 4 5 4 4
Wind_Direction
219 145 132 127 126 122 120 115 113 112 109 109 109 112 115 120 119 122 125 123 121 118 115 112 104 96 99 103 109 108 105 104 106 104 104 108 106 104 102 96 93 95 97
139 142 135 131 126 124 120 115 113 113 112 108 109 108 112 115 118 120 123 122 125 119 120 111 103 101 109 113 110 115 114 116 117 118 105 114 124 109 105 102 101 98 99
134 145 138 134 129 124 120 113 108 110 104 108 112 112 112 112 112 118 116 117 112 118 120 115 110 106 107 115 119 119 118 113 112 107 96 84 105 115 114 110 103 103 100
134 137 138 132 132 127 124 119 116 116 115 116 114 112 112 117 117 116 114 113 112 113 120 115 110 110 105 112 116 123 127 118 117 98 66 78 103 112 105 104 103 99 101
129 138 145 137 136 133 127 125 123 120 120 116 106 116 115 108 109 107 111 112 116 120 117 110 110 115 117 111 107 110 100 122 122 97 85 84 93 109 112 110 107 103 103
130 142 144 146 140 136 131 129 128 120 121 120 118 112 116 115 115 114 114 115 116 115 109 102 103 110 111 110 106 105 129 122 115 103 98 88 89 114 116 115 117 111 114
133 140 145 147 145 137 138 130 127 123 125 116 113 117 116 119 117 117 113 109 107 104 98 92 90 95 97 107 106 102 117 112 100 93 86 95 113 121 116 118 113 111 112
139 139 147 149 146 142 139 137 136 132 130 124 116 110 115 117 116 117 115 112 108 106 97 87 84 90 96 101 100 92 123 123 109 100 102 107 112 118 120 123 119 122 122
142 134 142 148 149 149 147 143 143 142 134 131 126 125 121 120 123 124 118 114 112 104 96 95 95 99 100 92 88 86 138 129 105 101 118 114 134 132 126 122 129 127 127
133 136 135 140 134 148 158 151 153 146 140 141 137 136 130 127 130 124 112 116 109 103 101 86 80 85 94 104 87 106 130 131 111 111 97 149 132 137 131 129 127 125 126
143 142 133 136 152 147 160 163 157 151 153 153 147 140 114 106 56 105 118 123 119 108 93 88 81 94 98 102 98 97 130 124 113 111 117 151 147 138 136 133 129 129 133
162 158 150 155 165 147 172 150 151 165 162 149 141 137 105 100 208 190 171 141 67 63 72 88 72 71 88 117 105 98 101 122 122 140 146 157 149 145 138 137 137 140 136
164 164 167 168 171 165 181 152 160 182 147 117 138 154 154 148 108 111 37 58 27 49 27 65 75 55 54 159 115 136 136 145 136 144 166 163 154 146 141 144 140 143 137
167 171 175 175 178 186 173 168 182 159 166 174 194 170 155 122 116 120 142 137 34 72 24 354 57 6 231 239 162 172 151 129 147 154 171 170 167 156 154 149 143 137 128
171 174 183 179 186 189 184 172 191 179 179 184 194 199 162 157 152 150 179 212 330 42 29 350 353 107 316 111 181 163 145 145 156 152 181 181 175 168 163 160 151 142 137
175 179 181 189 193 176 187 183 197 182 186 178 198 213 192 169 182 209 174 189 26 26 198 318 20 30 10 47 105 166 148 138 152 157 181 196 179 183 171 166 163 166 167
182 179 184 188 193 185 192 184 189 204 179 194 200 198 192 178 209 189 190 161 198 235 340 22 57 48 19 23 65 92 121 148 148 160 176 209 178 199 185 184 178 182 185
181 182 185 189 190 193 192 179 195 201 201 199 200 188 179 192 216 193 188 164 168 158 271 113 206 138 138 109 100 133 126 143 131 165 168 184 168 186 206 190 192 203 209
185 181 187 189 186 196 197 181 196 201 199 190 170 171 179 187 197 189 166 177 159 171 182 208 118 98 86 119 122 108 133 151 147 178 169 190 187 198 202 212 196 208 218
183 183 185 189 185 191 185 156 190 163 182 166 177 163 167 188 183 156 154 179 166 168 32 147 90 50 75 160 88 75 41 208 173 191 180 181 197 202 192 217 214 231 224
186 186 188 190 191 175 176 176 182 180 175 184 189 167 160 179 178 161 167 161 167 145 113 103 99 96 25 107 100 12 16 41 210 217 282 186 187 206 181 202 198 221 261
185 191 191 196 186 185 196 202 175 163 160 164 176 179 170 177 179 177 170 186 176 152 151 125 112 85 72 18 115 90 23 340 19 55 203 252 220 197 217 218 202 204 220
185 192 192 196 193 192 192 145 78 80 49 128 155 179 189 178 176 189 185 186 182 168 171 153 159 164 129 359 70 136 95 222 318 344 5 210 232 226 246 219 224 242 210
190 188 194 195 194 193 180 185 187 187 194 197 159 175 185 181 185 190 195 192 187 184 173 178 166 153 125 160 59 73 69 139 152 334 331 280 228 226 230 233 216 225 221
184 187 188 192 196 194 187 192 193 189 188 150 147 159 184 193 202 197 193 190 193 190 200 190 156 157 153 145 155 148 81 54 99 126 252 300 329 244 235 226 225 213 206
194 185 187 187 195 197 191 192 192 195 170 160 177 173 189 195 205 210 194 190 199 188 185 198 186 165 169 157 178 168 165 163 192 151 143 243 223 276 241 224 223 222 212